Погода в Бектауате

Погода в Бектауате : погода сейчас, прогноз погоды и архив. Всё, что Вы хотите узнать о погоде в Бектауате!

Поиск расширенной информации на нашем сайте:

Другие новости

Новости СМИ2

Главная страница сайта

Новости сайта

03.07.2017

Напоминаем, что на нашем специализированном сайте Метеоцентр.Азия вы можете получить высокодетализированные автоматические прогнозы погоды по пунктам России, СНГ и мира в авиационном формате (включающие направление и скорость ветра, видимость, явления погоды, количество и форму облачности, нижнюю и верхнюю границу облачности).


Погода в Бектауате - сегодня

Время (UTC), дата Ветер
(°,м/с) 
Видим.   Явления Облачность Т
(°С)
Тd
(°С)
f(%) Тe
(°С)
Pmin
(гПа)
dP
(гПа)
Po
(мм)
O2
(г/м3)
Тmin Tmax R s Состояние
почвы
15 15.10.17 тихо ()   н/о    ясно 
+8.6 -0.7 52 +9  1019.5  0.9  710  277    +17.8       
18 15.10.17 тихо ()   н/о    ясно 
+4 -1.9 65 +4  1020.5  -0.2  710  282    +17.8       
21 15.10.17 тихо ()   н/о    ясно 
+2.6 -2 72 +3  1020.3  -0.6  709  283           
00 16.10.17 тихо ()   н/о    ясно 
+4.5 -1.6 65 +5  1019.4  -0.4  709  281           
03 16.10.17 360 (С) 20000 м    3/0 верхняя 
[Ci fib]
+7.2 -2.7 49 +7  1018.7  0.1  709  279           
06 16.10.17 090 (В) 20000 м    4/0 верхняя 
[Ci]
+14.8 -1.9 32 +15  1016.7  709  271  +1.5         
09 16.10.17 тихо ()   20000 м    8/0 верхняя 
[Ci fib]
+16.3 -0.5 32 +16  1015  -1.2  708  269           
12 16.10.17 090 (В) 20000 м    9/0 верхняя 
[Ci]
+15.6 -2.2 29 +17  1015.4  0.2  708  270           
15 16.10.17 020 (С) н/о    9/0 верхняя 
[Ci ing]
+13 -3 33 +13  1016.9  0.7             
18 16.10.17 090 (В) н/о    10/4 600 м кучево-дожд., верхняя 
[Cb cap|Cs]
+13.6 -1.4 35 +14  1016.9  0.2             
21 16.10.17 050 (СВ) н/о  {ливн. осадки}  10/5 600 м кучево-дожд., средняя 
[Cb cap|Ac As]
+12.1 +0.6 45 +12  1016.9  -0.4  709  273           
00 17.10.17 050 (СВ) н/о  {ливн. осадки}  4/4 600 м кучево-дожд. 
[Cb cap]
+9.3 -1.2 48 +9  1017.4  -0.2  708  276           
03 17.10.17 020 (С) 20000 м    3/0 верхняя 
[Ci fib]
+9.6 -0.9 48 +10  1017.7  0.3  709  276      0.0     
06 17.10.17 140 (ЮВ) 20000 м    3/0 верхняя 
[Ci fib]
+15.7 -1.9 30 +16  1015.2  -0.8  708  270  +8    0.0     
09 17.10.17 140 (ЮВ) 20000 м    9/0 средняя, верхняя 
[Ac cast|Ci ing]
+17.8 +0.4 31 +19  1013.2  -1.4  707  267           
12 17.10.17 180 (Ю) 20000 м    9/0 средняя, верхняя 
[Ac lent|Ci]
+16.6 +1.1 35 +17  1012.8  -0.6  707  268           
15 17.10.17 140 (ЮВ) н/о    8/0 средняя 
[Ac trans]
+16.3 -1.2 30 +17  1012.2  -0.6  706  268           
18 17.10.17 140 (ЮВ) н/о    6/0 средняя 
[Ac lent]
+15.6 -1.4 31 +16  1010.6  -1.7  705  269           
21 17.10.17 140 (ЮВ) н/о    ясно 
+16.2 -2.2 28 +17  1008.7  -1.6  704  268           
00 18.10.17 140 (ЮВ) н/о    3/0 верхняя 
[Ci ing]
+14.8 -3.3 28 +14  1007.6  -1.4             
03 18.10.17 050 (СВ) 20000 м    10/4 600 м кучево-дожд., верхняя 
[Cb cap|Cs]
+13 -0.9 38 +13  1008.2  0.1  703  270           
06 18.10.17 180 (Ю) 20000 м    9/5 600 м кучево-дожд., средняя, верхняя 
[Cb cap|Ac lent|Ci ing]
+12.8 +1.1 45 +13  1010.5  2.2  704  271  +11.5         
09 18.10.17 230 (ЮЗ) 10 км  слаб. дождь  10/10 300 м 
[Frnb|Ns]
+6.8 +5.7 93 +6  1015.7  3.4  707  277           
12 18.10.17 270 (З) 20000 м  {дождь}  10/10 600 м 
[Sc]
+6.2 +4.3 88 +6  1018  708  278           
18 18.10.17 270 (З) н/о    10/10 600 м 
[Sc]
+5.7 +4.8 94 +5  1020.3  -0.5  710  279    +14.2     
Время (UTC), дата Ветер
(°,м/с) 
Видим.   Явления Облачность Т
(°С)
Тd
(°С)
f(%) Тe
(°С)
Pmin
(гПа)
dP
(гПа)
Po
(мм)
O2
(г/м3)
Тmin Tmax R s Состояние
почвы

Для получения пояснительной информации подведите курсор к названию столбца.

ПОГОДА в Бектауате - архив

Всё, что Вы хотите узнать о погоде в Бектауате - удобно и подробно!

Выберите нужную дату (начиная с 1 января 2015* года) и нажмите кнопку "Найти".
Будут отображены архивные сводки погоды по пункту Бектауата, начиная с указанной даты.


Отображать данные в формате CSV (для использования в таблицах Excel)


Внимание! Наш архив погоды предназначен исключительно для личного некоммерческого использования в познавательных целях. Если Вам необходимы официальные справки о состоянии погоды (для производственных, юридических, коммерческих и т.п. целей), обращайтесь в органы Росгидромета.

*Примечание: данная дата относится к архиву по метеостанциям СССР (Россия, СНГ, Балтия).
Архив по метеостанциям Зарубежной Европы и Азии (кроме Китая) хранится 10 дней, по другим регионам земного шара (Китай, Африка, Америка, Австралия, Океания) - 1 день.

Бектауата - район местоположения метеостанции


Название, широта, долгота, высота метеостанции:
Бектауата 47.4°ш. 74.8°д. 520 м над ур. моря [Казахстан]

Дополнительная информация

В oтличие oт бoльшинства пoгoдных сайтoв мы публикуем пoдрoбную метеoинфoрмацию в детальнoм прoфессиoнальнoм фoрмате.

Характеристики температуры и влажнoсти вoздуха измеряются на высoте 2 м в тени вдали oт зданий и деревьев.
Скoрoсть ветра измеряется на высoте 10 м (на урoвне рoста челoвека скoрoсть ветра ниже в 1.5-2 раза). Если метеoстанция нахoдится в гoрoде или в лесу, тo скoрoсть ветра занижена на 2-4 м/с пo сравнению с oткрытым местoм. Скoрoсть ветра над акватoриями крупных рек и oзёр, а также на вершинах хoлмoв на 2-5 м/с выше, чем в oбычных услoвиях.
Атмoсфернoе давление в разных тoчках местнoсти мoжет значительнo oтличаться oт давления на метеoстанции, в зависимoсти oт услoвий рельефа (при пoдъёме на 10 м давление пoнижается примернo на 1 мм рт.ст.).